DECAYED

STARLINK-1742, 46376 (Decayed)

Orbit data source: Space-Track

STARLINK-1742, 46376 was a payload satellite owned by SpaceX/Seattle (US) in LEO that was launched on Thu, 03 Sep 2020 UTC via an FALCON 9 launch vehicle from the Air Force Eastern Test Range (AFETR). Payload-class satellites include a variety of spacecraft equipped with specific instruments for various scientific and technological missions. These include communications satellites like Starlink; space stations such as the ISS; scientific satellites like the Hubble; Earth observation satellites from companies like Planet Labs, Umbra, and HawkEye 360; GPS; miniature CubeSats for education and research; and military/defense satellites.

Not visible in the next 10 days
Identifier
46376, 2020-062BD
Orbit
Decayed
Country
Flag of USUS
Related business
Manufacturer
SpaceX/Seattle
Mission
Decayed Commercial Communications
Bus & Motor
STARLINK, Unknown motor
Mass
260 kg wet, ~248 kg dry
Launch date (UTC)
2020-09-03 (6 years ago)
Launch vehicle
FALCON 9
Launch site
Air Force Eastern Test Range (AFETR)
Object type
Payload
Rocket body
Debris
Shape & HBR
Box + 1 Pan, 10.1 m
Radar Cross Section
13.562 m², Large (>1 m²)

Expand to show TLE details & history
Last TLE update: 5 months ago

TLE from 5 months ago
0 STARLINK-1742
1 46376U 20062BD  26106.74287243  .04694002  12374-4  36602-3 0  9994
2 46376  53.0074  59.7521 0004028 302.2333  57.8322 16.39443297312085
Epoch: 2026-04-16T17:49Z
TLE epoch observation values (Epoch: 2026-04-16T17:49:44.177Z)
Latitude
-0.00005°
Longitude
-52.56805°
Altitude
166.806 km
Speed
7.808 km/s
True Right ascension
03h 59m 00s
True Declination
0° 00' 00"
Sunlit
Object was in daylight at epoch
Visualization orbit readout
Latitude
Unknown
Longitude
Unknown
Altitude
Unknown
Speed
Unknown
Apparent Right ascension
Unknown
Apparent Declination
Unknown
Sunlit
N/A
Visualization observer readout
Local Sidereal Time
09:54:55
Azimuth
Unknown
Elevation
Unknown
Doppler factor
Unknown
Orbital elements
Apogee altitude
170.214 km
Perigee altitude
164.941 km
Semi-major axis
6,545.715 km
Eccentricity
0.0004
Inclination
53.0074°
RAAN
59.7521°
Arg. of periapsis
302.2333°
True anomaly
57.87128°
Mean anomaly
57.8322°
Eccentric anomaly
57.85174°
Mean motion
4.09834 °/min
Orbital period
87.84 mins
BSTAR
0.00036602
Loading maneuver chart data...
Computing Atmospheric mass density...

Documentation

Showing up to 5 results
|